Regional Weather Roundup
Issued by NWS State College, PA

Home | Current Version | Previous Version | Text Only | Print | Product List | Glossary Off
Versions: 1 2 3 4 5 6 7 8 9 10 11 12 13 14 15 16 17 18 19 20 21 22 23 24 25 26 27 28 29 30 31 32 33 34 35 36 37 38 39 40 41 42 43 44 45 46 47 48 49 50

000
ASUS41 KCTP 190210
RWRCTP

REGIONAL WEATHER ROUNDUP
NATIONAL WEATHER SERVICE STATE COLLEGE PA
1000 PM EDT FRI APR 18 2014

Note: "fair" indicates few or no clouds below 12,000 feet with no
significant weather and/or obstructions to visibility.

* = STATION THAT DOES NOT REPORT PRECIPITATION /E.G. RAIN...SNOW...ETC/
    THUNDER OR FOG.

PAZ002>004-007>009-013>016-020>023-029>032-190300-
WESTERN PENNSYLVANIA

CITY           SKY/WX    TMP DP  RH WIND       PRES   REMARKS
ERIE           MOCLDY    47  40  76 CALM      30.28R
MEADVILLE      NOT AVBL
FRANKLIN*      CLEAR     50  36  57 N3        30.26R
NEW CASTLE     FAIR      55  36  49 CALM      30.25R
BEAVER COUNTY  NOT AVBL
BUTLER*        MOCLDY    54  36  50 CALM      30.24S
PITTSBURGH INT MOCLDY    59  36  42 N5        30.22R
PITTSBURGH     CLOUDY    59  35  40 N9        30.21R
INDIANA*       CLOUDY    55  32  41 N5        30.22S
LATROBE        CLEAR     59  34  38 W6        30.21S
WASHINGTON CO* MOCLDY    50  34  53 CALM      30.24R
$$

PAZ004>006-010>012-017>019-024>028-033>037-041-042-045-046-049>053-190300-
CENTRAL PENNSYLVANIA

CITY           SKY/WX    TMP DP  RH WIND       PRES   REMARKS
BRADFORD       PTCLDY    48  35  60 NW12      30.23R
DUBOIS         CLOUDY    55  36  48 N3        30.21S
CLEARFIELD     CLOUDY    52  33  48 CALM      30.22S
JOHNSTOWN      CLOUDY    49  32  52 S6        30.22R
ALTOONA        CLOUDY    49  35  58 S8        30.25S
STATE COLLEGE  CLOUDY    49  30  49 SW6       30.23S
WILLIAMSPORT   CLOUDY    49  32  52 E3        30.24S
SELINSGROVE    CLOUDY    46  34  62 CALM      30.26F
FT INDIANTOWN  CLOUDY    43  37  81 CALM      30.28F
CAPITAL CITY   CLOUDY    49  34  56 SE3       30.28F
HARRISBURG     CLOUDY    51  36  56 SW10      30.28S
YORK           CLOUDY    47  34  60 S6        30.29S
$$

PAZ038>040-043-044-047-048-054-055-060>062-067>071-190300-
EASTERN PENNSYLVANIA

CITY           SKY/WX    TMP DP  RH WIND       PRES   REMARKS
SCRANTON       CLOUDY    47  30  51 SW6       30.23F
MOUNT POCONO   CLOUDY    41  30  65 SW5       30.23F
ALLENTOWN      CLOUDY    45  31  58 CALM      30.28F
QUAKERTOWN*    CLOUDY    45  32  61 CALM      30.28F
READING        CLOUDY    48  35  60 SW6       30.28S
LANCASTER      CLOUDY    47  31  53 SW6       30.29S
COATESVILLE    NOT AVBL
POTTSTOWN      CLOUDY    46  34  62 CALM      30.29F
BLUE BELL      CLOUDY    46  36  66 CALM      30.28S
DOYLESTOWN     CLOUDY    44  34  67 CALM      30.27F
WILLOW GROVE   NOT AVBL
NORTH PHILA    CLOUDY    47  35  63 SE6       30.32R
PHILADELPHIA   CLOUDY    48  37  65 S14       30.32R
$$



USA.gov is the U.S. government's official web portal to all federal, state and local government web resources and services.